Home > Weather > Bad Kissingen > Past weeks

Flag for Germany Weather for the Past 2 Weeks in Bad Kissingen, Bavaria, Germany

Now
35 °F

Partly sunny.


Feels Like: 26 °F
Forecast: 36 / 40 °F
Wind: 14 mph from Southwest

Location: Illesheim

Current Time: Feb 10, 2016 at 8:29:39 AM

Latest Report: Feb 10, 2016 at 7:58 AM


Visibility: N/A

Pressure: 29.44 "Hg

Humidity: 87%

Dew point: 31 °F

Location of Bad KissingenLocation

Historic Weather in Bad Kissingen — Graph

°F

Bad Kissingen Temperature Yesterday

Maximum temperature yesterday: 50 °F (at 5:58 PM)
Minimum temperature yesterday: 40 °F (at 11:58 PM)
Average temperature yesterday: 45 °F

High & Low Weather Summary for the Past Weeks

 TemperatureHumidityPressure
High57 °F (Jan 27, 1:58 PM)100% (Feb 1, 9:04 AM)30.44 "Hg (Feb 1, 9:04 AM)
Low32 °F (Feb 5, 3:58 AM)53% (Jan 27, 3:58 PM)29.13 "Hg (Feb 9, 5:58 PM)
Average44 °F81%30.03 "Hg
* Reported Jan 26 6:58 AM — Feb 10 6:58 AM, Bad Kissingen, Weather by CustomWeather, © 2016

Note: Actual official high and low records may vary slightly from our data, if they occured in-between our weather recording intervals... More about our weather records

Advertising

Bad Kissingen Weather History for the Previous 24 Hours

 ConditionsComfort  
Time TempWeatherWind HumidityBarometerVisibility
6:58 AM
Wed, Feb 10
34 °FPassing clouds.12 mph89%29.42 "HgN/A
5:58 AM35 °FOvercast.10 mph89%29.41 "HgN/A
4:58 AM36 °FOvercast.13 mph90%29.40 "HgN/A
3:58 AM36 °FPartly cloudy.13 mph93%29.36 "HgN/A
2:58 AM37 °FPassing clouds.15 mph87%29.35 "HgN/A
1:58 AM38 °FMostly cloudy.14 mph86%29.34 "HgN/A
12:58 AM39 °FMostly cloudy.14 mph83%29.33 "HgN/A
11:58 PM
Tue, Feb 9
40 °FOvercast.15 mph83%29.30 "HgN/A
10:58 PM40 °FMostly cloudy.22 mph83%29.27 "HgN/A
9:58 PM41 °FPassing clouds.28 mph80%29.21 "HgN/A
8:58 PM44 °FClear.18 mph80%29.20 "HgN/A
8:03 PM43 °FPassing clouds.16 mph87%29.16 "HgN/A
7:58 PM42 °FLight rain. Passing clouds.18 mph88%29.21 "HgN/A
7:03 PM48 °FStrong thunderstorms. Passing clouds.32 mph76%29.20 "Hg1 mi
7:02 PM50 °FThunderstorms. Passing clouds.37 mph71%29.19 "Hg2 mi
5:58 PM50 °FClear.21 mph71%29.13 "HgN/A
4:58 PM48 °FSunny.18 mph80%29.17 "HgN/A
3:59 PM48 °FLight rain. Partly sunny.16 mph87%29.21 "HgN/A
3:58 PM48 °FPartly sunny.15 mph87%29.24 "HgN/A
2:58 PM48 °FLight rain. Partly sunny.14 mph83%29.27 "HgN/A
1:58 PM48 °FDrizzle. Partly sunny.15 mph82%29.30 "HgN/A
12:58 PM47 °FLight rain. Overcast.10 mph79%29.37 "HgN/A
11:58 AM44 °FOvercast.7 mph91%29.44 "HgN/A
10:58 AM45 °FLight rain. Mostly cloudy.9 mph85%29.52 "HgN/A
9:58 AM44 °FScattered clouds.6 mph82%29.58 "HgN/A
8:58 AM44 °FSunny.12 mph80%29.61 "HgN/A
Weather by CustomWeather, © 2016

See weather overviewHow to use our weather pages